Lexington Weather

Lexington, Massachusetts, USA

70°F
8/17/2022 6:50pm 
  • Lexington Conditions: Overcast
  • Temperature: 69.8°F / 21.0°CColder 0.4°F than last hour.
  • Dew Point: 57.6°FDecreased 1.6°Fsince last hour.
  • Relative Humidity: 65%Decreased 3.0% since last hour.
  • Wind: Calm, 10-min avg: Calm, gust: 3 mph
  • Barometer: 29.85 in Steady
  • Visibility: 10 miles
  • Rain Today: 0.00 in
  •   

Regional Weather Roundup
for Boston, MA

        
000
ASUS41 KBOX 120210
RWRBOX

REGIONAL WEATHER ROUNDUP
NATIONAL WEATHER SERVICE BOSTON/NORTON MA
1000 PM EDT THU AUG 11 2022

NOTE:  "FAIR" INDICATES FEW OR NO CLOUDS BELOW 12,000 FEET WITH NO 
SIGNIFICANT WEATHER AND/OR OBSTRUCTIONS TO VISIBILITY.

MAZALL-120300-
EASTERN MASSACHUSETTS
  
CITY           SKY/WX    TMP DP  RH WIND       PRES   REMARKS
BOSTON         MOCLDY    72  68  87 S9        29.89R                  
BEVERLY        CLEAR     67  66  97 SE5       29.88R                  
LAWRENCE       CLEAR     72  68  87 VRB3      29.89S                  
BEDFORD        CLEAR     73  68  84 S9        29.87R                  
BLUE HILL      NOT AVBL                                               
NORWOOD        CLOUDY    73  67  81 S6        29.89S                  
MARSHFIELD     CLEAR     68  66  94 CALM      29.89S                  
PLYMOUTH       PTCLDY    70  68  93 CALM      29.90S                  
TAUNTON        PTCLDY    69  67  93 CALM      29.90R                  
NEW BEDFORD    CLEAR     68  68 100 CALM      29.90R                  
$$

MAZALL-120300-
CAPE COD AND THE ISLANDS
  
CITY           SKY/WX    TMP DP  RH WIND       PRES   REMARKS
FALMOUTH       MOCLDY    68  68 100 CALM      29.88F                  
HYANNIS        PTCLDY    68  65  90 CALM      29.89R                  
CHATHAM        CLOUDY    68  65  90 S3        29.91S                  
NANTUCKET      CLEAR     68  66  93 NE3       29.91R                  
MARTHAS VNYRD  PTCLDY    68  67  96 CALM      29.90S                  
$$
 
MAZALL-120300-
CENTRAL AND WESTERN MASSACHUSETTS
  
CITY           SKY/WX    TMP DP  RH WIND       PRES   REMARKS
WORCESTER      MOCLDY    72  59  63 W3        29.92R                  
FITCHBURG      MOCLDY    72  59  63 NW6       29.91R                  
ORANGE         PTCLDY    69  62  78 CALM      29.93R                  
SPRINGFIELD    MOCLDY    72  63  73 N9        29.88R                  
WESTFIELD      CLOUDY    74  61  63 N14       29.90R                  
NORTH ADAMS    MOCLDY    67  62  84 CALM      29.94R                  
PITTSFIELD     CLOUDY    70  56  61 NW8       29.95R                  
$$
 
RIZALL-120300-
RHODE ISLAND
  
CITY           SKY/WX    TMP DP  RH WIND       PRES   REMARKS
PROVIDENCE     MOCLDY    71  68  90 SW6       29.91R                  
NEWPORT        MOCLDY    68  68 100 MISG      29.90S                  
BLOCK ISLAND   PTCLDY    69  67  93 SW5       29.92R                  
SMITHFIELD     PTCLDY    69  69 100 CALM      29.92R                  
WESTERLY       PTCLDY    70  68  93 S3        29.90S                  
$$
 
CTZALL-120300-
CONNECTICUT
  
CITY           SKY/WX    TMP DP  RH WIND       PRES   REMARKS
BRADLEY INTL   LGT RAIN  77  60  55 NW13      29.91R                  
HARTFORD       MOCLDY    76  67  73 S5        29.88R                  
BRIDGEPORT     PTCLDY    77  70  79 S7        29.88R                  
DANBURY        CLOUDY    78  65  63 W5        29.91R                  
GROTON         CLOUDY    73  69  87 SE5       29.89S                  
NEW HAVEN      PTCLDY    78  73  84 S9        29.89R                  
CHESTER        FAIR      72  72 100 CALM      29.91R                  
MERIDEN        PTCLDY    71  63  75 CALM      29.89R                  
WILLIMANTIC    CLOUDY    72  69  90 S3        29.90R                  
OXFORD         MOCLDY    73  66  78 CALM      29.92R                  
$$

MEZ002-015-021-024-NHZ003-005-008-011-012-014-VTZ005-008-120300-
NORTHERN NEW ENGLAND
  
CITY           SKY/WX    TMP DP  RH WIND       PRES   REMARKS
PORTLAND ME    CLOUDY    67  66  97 S3        29.89R                  
BANGOR ME      MOCLDY    66  64  93 S10       29.89R                  
CONCORD NH     MOCLDY    72  58  61 NW7       29.90R                  
MANCHESTER NH  MOCLDY    77  59  53 NW13      29.88R                  
NASHUA NH      CLOUDY    75  63  66 CALM      29.90R                  
PORTSMOUTH NH  PTCLDY    66  64  93 SE5       29.87S                  
JAFFREY NH     MOCLDY    71  58  63 CALM      29.94R                  
KEENE NH       CLEAR     68  62  81 CALM        N/A                   
BURLINGTON VT  PTCLDY    68  61  78 NW5       29.96R                  
MT. WASHINGTON FOG       46  46 100 NW33        N/A  VSB 1/16         
$$

NYZ052-076-120300-
EASTERN NEW YORK
  
CITY           SKY/WX    TMP DP  RH WIND       PRES   REMARKS
ALBANY         PTCLDY    73  54  51 NW9       29.94R                  
NEW YORK CITY  MOCLDY    79  67  66 S6        29.87R                  
$$
 
ANZALL-120300-
MARINE OBSERVATIONS
  
STATION/POSITION TIME  TEMP    WIND        PRES    VSBY  WAVE
                       AIR SEA DIR/SP/G                  HT/PER
                 (UTC) (F)     (DEG/KT/KT) (MB)    (MI)  (FT/S)
BOSTON BUOY      NOT AVBL
BUZZARDS BAY     NOT AVBL
NANTUCKET SOUND  NOT AVBL
MASS BAY-STELLWA NOT AVBL
ISLE OF SHOALS   NOT AVBL
S OF BLOCK IS    NOT AVBL
$$

......................KEY.........................
  SKY/WX - SKY CONDITION/PRESENT WEATHER
  TMP    - TEMPERATURE IN FAHRENHEIT
  DWPT   - DEWPOINT IN FAHRENHEIT
  RH     - RELATIVE HUMIDITY IN PERCENT
  WIND   - DIRECTION AND SPEED IN MPH
  PRES   - MEAN SEA LEVEL PRESSURE IN INCHES OF HG
  WCI    - WIND CHILL INDEX
  VSB    - VISIBILITY IN MILES
  HX     - HEAT INDEX
  TC     - TEMPERATURE IN CELSIUS
  VRB    - VARIABLE WIND DIRECTION
  N/A    - NOT AVAILABLE
  
      

Other recent Regional Weather Roundups

Wed Aug 17, 6:10pm

Wed Aug 17, 5:10pm

Wed Aug 17, 4:10pm

Wed Aug 17, 3:10pm

Wed Aug 17, 2:10pm

Wed Aug 17, 1:10pm

Wed Aug 17, 12:10pm

Wed Aug 17, 11:10am

Wed Aug 17, 10:10am

Wed Aug 17, 9:10am

Wed Aug 17, 8:10am

Wed Aug 17, 7:10am

Wed Aug 17, 6:10am

Wed Aug 17, 5:10am

Wed Aug 17, 4:10am

Wed Aug 17, 3:10am

Wed Aug 17, 2:10am

Wed Aug 17, 1:10am

Wed Aug 17, 12:10am

Tue Aug 16, 11:10pm

Tue Aug 16, 10:10pm

Tue Aug 16, 9:10pm

Tue Aug 16, 8:10pm

Tue Aug 16, 7:10pm

Tue Aug 16, 6:10pm

Tue Aug 16, 5:10pm

Tue Aug 16, 4:10pm

Tue Aug 16, 3:10pm

Tue Aug 16, 2:10pm

Tue Aug 16, 1:10pm

Tue Aug 16, 12:10pm

Tue Aug 16, 11:10am

Tue Aug 16, 10:10am

Tue Aug 16, 9:10am

Tue Aug 16, 8:10am

Tue Aug 16, 7:10am

Tue Aug 16, 6:10am

Tue Aug 16, 5:10am

Tue Aug 16, 4:10am

Tue Aug 16, 3:10am

Tue Aug 16, 2:10am

Tue Aug 16, 1:10am

Tue Aug 16, 12:10am

Mon Aug 15, 11:10pm

Mon Aug 15, 10:10pm

Mon Aug 15, 9:10pm

Mon Aug 15, 8:10pm

Mon Aug 15, 7:10pm

Mon Aug 15, 6:10pm

Mon Aug 15, 5:10pm

Mon Aug 15, 4:10pm

Mon Aug 15, 3:10pm

Mon Aug 15, 2:10pm

Mon Aug 15, 1:10pm

Mon Aug 15, 12:10pm

Mon Aug 15, 11:10am

Mon Aug 15, 10:10am

Mon Aug 15, 9:10am

Mon Aug 15, 8:10am

Mon Aug 15, 7:10am

Mon Aug 15, 6:10am

Mon Aug 15, 5:10am

Mon Aug 15, 4:10am

Mon Aug 15, 3:10am

Mon Aug 15, 2:10am

Mon Aug 15, 1:10am

Mon Aug 15, 12:10am

Sun Aug 14, 11:10pm

Sun Aug 14, 10:10pm

Sun Aug 14, 9:10pm

Sun Aug 14, 8:10pm

Sun Aug 14, 7:10pm

Sun Aug 14, 6:10pm

Sun Aug 14, 5:10pm

Sun Aug 14, 4:10pm

Sun Aug 14, 3:10pm

Sun Aug 14, 2:10pm

Sun Aug 14, 1:10pm

Sun Aug 14, 12:10pm

Sun Aug 14, 11:10am

Sun Aug 14, 10:10am

Sun Aug 14, 9:10am

Sun Aug 14, 8:10am

Sun Aug 14, 7:10am

Sun Aug 14, 6:10am

Sun Aug 14, 5:10am

Sun Aug 14, 4:10am

Sun Aug 14, 3:10am

Sun Aug 14, 2:10am

Sun Aug 14, 1:10am

Sun Aug 14, 12:10am

Sat Aug 13, 11:10pm

Sat Aug 13, 10:10pm

Sat Aug 13, 9:10pm

Sat Aug 13, 8:10pm

Sat Aug 13, 7:10pm

Sat Aug 13, 6:10pm

Sat Aug 13, 5:10pm

Sat Aug 13, 4:10pm

Sat Aug 13, 3:10pm

Sat Aug 13, 2:10pm

Sat Aug 13, 1:10pm

Sat Aug 13, 12:10pm

Sat Aug 13, 11:10am

Sat Aug 13, 10:10am

Sat Aug 13, 9:10am

Sat Aug 13, 8:10am

Sat Aug 13, 7:10am

Sat Aug 13, 6:10am

Sat Aug 13, 5:10am

Sat Aug 13, 4:10am

Sat Aug 13, 3:10am

Sat Aug 13, 2:10am

Sat Aug 13, 1:10am

Sat Aug 13, 12:10am

Fri Aug 12, 11:10pm

Fri Aug 12, 10:10pm

Fri Aug 12, 9:10pm

Fri Aug 12, 8:10pm

Fri Aug 12, 7:10pm

Fri Aug 12, 6:10pm

Fri Aug 12, 5:10pm

Fri Aug 12, 4:10pm

Fri Aug 12, 3:10pm

Fri Aug 12, 2:10pm

Fri Aug 12, 1:10pm

Fri Aug 12, 12:10pm

Fri Aug 12, 11:10am

Fri Aug 12, 10:10am

Fri Aug 12, 9:10am

Fri Aug 12, 8:10am

Fri Aug 12, 7:10am

Fri Aug 12, 6:10am

Fri Aug 12, 5:10am

Fri Aug 12, 4:10am

Fri Aug 12, 3:10am

Fri Aug 12, 2:10am

Fri Aug 12, 1:10am

Fri Aug 12, 12:10am

Thu Aug 11, 11:10pm

Thu Aug 11, 9:10pm

Thu Aug 11, 8:10pm

Thu Aug 11, 7:10pm

Thu Aug 11, 6:10pm

Thu Aug 11, 5:10pm

Thu Aug 11, 4:10pm

Thu Aug 11, 3:10pm

Thu Aug 11, 2:10pm

Thu Aug 11, 1:10pm

Thu Aug 11, 12:10pm

Thu Aug 11, 11:10am

Thu Aug 11, 10:10am

Thu Aug 11, 9:10am

Thu Aug 11, 8:10am

Thu Aug 11, 7:10am

Thu Aug 11, 6:10am

Thu Aug 11, 5:10am

Thu Aug 11, 4:10am

Thu Aug 11, 3:10am

Thu Aug 11, 2:10am

Thu Aug 11, 1:10am

Thu Aug 11, 12:10am

Wed Aug 10, 11:10pm

Wed Aug 10, 10:10pm

Wed Aug 10, 9:10pm

Wed Aug 10, 8:10pm

Wed Aug 10, 7:10pm

Meta data:

ID: 01cd38ed-7e21-4cc0-be16-299178e896ab
Link: https://api.weather.gov/products/01cd38ed-7e21-4cc0-be16-299178e896ab